Regional Weather Roundup
Issued by NWS State College, PA

Home | Current Version | Previous Version | Graphics & Text | Print | Product List | Glossary On
Versions: 1 2 3 4 5 6 7 8 9 10 11 12 13 14 15 16 17 18 19 20 21 22 23 24 25 26 27 28 29 30 31 32 33 34 35 36 37 38 39 40 41 42 43 44 45 46 47 48 49 50
000
ASUS41 KCTP 290303
RWRCTP

REGIONAL WEATHER ROUNDUP
NATIONAL WEATHER SERVICE STATE COLLEGE PA
1100 PM EDT FRI APR 28 2017

Note: "fair" indicates few or no clouds below 12,000 feet with no
significant weather and/or obstructions to visibility.

* = STATION THAT DOES NOT REPORT PRECIPITATION /E.G. RAIN...SNOW...ETC/
    THUNDER OR FOG.

PAZ002>004-007>009-013>016-020>023-029>032-290400-
WESTERN PENNSYLVANIA

CITY           SKY/WX    TMP DP  RH WIND       PRES   REMARKS
ERIE           CLOUDY    60  47  61 S12       30.00F
MEADVILLE      LGT RAIN  58  47  66 S6        30.04R
FRANKLIN*      CLOUDY    55  46  71 SE5       30.09R
NEW CASTLE     RAIN      56  52  86 SE9       30.06R
BEAVER COUNTY  NOT AVBL
BUTLER*        CLOUDY    59  48  67 NE12      30.08R
PITTSBURGH INT TSTM      63  49  60 NE7       30.06R
PITTSBURGH     LGT RAIN  59  46  62 N7        30.03R
INDIANA*       MOCLDY    61  46  59 E8        30.09R
LATROBE        CLOUDY    63  45  51 NW5       30.05R
WASHINGTON CO* CLOUDY    61  48  63 CALM      30.05S
$$

PAZ004>006-010>012-017>019-024>028-033>037-041-042-045-046-049>053-290400-
CENTRAL PENNSYLVANIA

CITY           SKY/WX    TMP DP  RH WIND       PRES   REMARKS
BRADFORD       CLOUDY    53  50  89 SE5       30.06F
DUBOIS         LGT RAIN  56  47  71 CALM      30.11R
CLEARFIELD     CLOUDY    61  43  51 N5        30.09F
JOHNSTOWN      LGT RAIN  61  44  53 E8        30.06S
ALTOONA        CLOUDY    67  49  52 NE5       30.05R
STATE COLLEGE  RAIN      66  43  42 CALM      30.08R
WILLIAMSPORT   NOT AVBL
SELINSGROVE    CLOUDY    61  56  83 CALM      30.03S
FT INDIANTOWN  CLOUDY    61  54  75 CALM      30.04S
CAPITAL CITY   PTCLDY    73  55  53 SE8       30.02S
HARRISBURG     CLOUDY    68  59  73 SE3       30.02S
YORK           PTCLDY    71  59  65 SE7       30.02F
$$

PAZ038>040-043-044-047-048-054-055-060>062-067>071-290400-
EASTERN PENNSYLVANIA

CITY           SKY/WX    TMP DP  RH WIND       PRES   REMARKS
SCRANTON       CLOUDY    66  42  41 E3        30.06R
MOUNT POCONO   PTCLDY    54  40  59 NW3       30.08F
ALLENTOWN      CLOUDY    67  47  48 CALM      30.05R
QUAKERTOWN*    CLOUDY    63  50  63 CALM      30.07S
READING        CLOUDY    67  53  61 CALM      30.04R
LANCASTER      CLOUDY    66  58  75 E5        30.04S
COATESVILLE    PTCLDY    68  57  68 CALM      30.08S
POTTSTOWN      CLOUDY    64  54  69 CALM      30.07R
BLUE BELL      PTCLDY    68  57  68 S3        30.07S
DOYLESTOWN     PTCLDY    68  53  58 CALM      30.05S
WILLOW GROVE   NOT AVBL
NORTH PHILA    PTCLDY    72  58  61 SW3       30.06F
PHILADELPHIA   MOCLDY    71  58  63 W3        30.05F
$$




USA.gov is the U.S. government's official web portal to all federal, state and local government web resources and services.